Overview Statistics Trail Chart Weather Telemetry Raw packets
 

This is the latest recevied weather packets stored in our database for station/object W0CHP-13. If no packets are shown the sender has not sent any weather packets the latest 10 day(s).

<< 47 48 49 50 51 52 53 >>
Time Temp. Humidity Pressure Rain* Wind** Luminosity Snow
1787974517 19.44° C 74% 1016.5 hPa 0 mm - 0 W/m² -
1787973918 19.44° C 74% 1016.5 hPa 0 mm - 0 W/m² -
1787973317 19.44° C 75% 1016.5 hPa 0 mm - 0 W/m² -
1787972715 19.44° C 74% 1016.8 hPa 0 mm - 0 W/m² -
1787972116 19.44° C 74% 1016.8 hPa 0 mm - 0 W/m² -
1787971515 20° C 73% 1016.8 hPa 0 mm - 0 W/m² -
1787970916 20° C 73% 1016.8 hPa 0 mm - 0 W/m² -
1787970315 20° C 72% 1016.8 hPa 0 mm - 0 W/m² -
1787969718 20.56° C 73% 1016.5 hPa 0 mm - 0 W/m² -
1787969116 20.56° C 72% 1016.8 hPa 0 mm - 0 W/m² -
1787968518 20.56° C 71% 1016.5 hPa 0 mm - 0 W/m² -
1787967916 20.56° C 69% 1016.5 hPa 0 mm - 0 W/m² -
1787967318 21.11° C 67% 1016.5 hPa 0 mm - 0 W/m² -
1787966719 21.67° C 66% 1016.2 hPa 0 mm - 0 W/m² -
1787966117 21.67° C 64% 1016.5 hPa 0 mm - 0 W/m² -
1787965523 22.22° C 65% 1016.1 hPa 0 mm - 0 W/m² -
1787964919 22.78° C 61% 1016.1 hPa 0 mm - 1 W/m² -
1787964316 22.78° C 58% 1016.2 hPa 0 mm - 3 W/m² -
1787963726 23.33° C 56% 1016.2 hPa 0 mm - 8 W/m² -
1787963116 23.89° C 55% 1016.2 hPa 0 mm - 13 W/m² -
1787962516 23.89° C 54% 1016.2 hPa 0 mm - 20 W/m² -
1787961917 24.44° C 53% 1016.1 hPa 0 mm - 32 W/m² -
1787961316 24.44° C 52% 1016.5 hPa 0 mm - 35 W/m² -
1787960718 25° C 50% 1016.5 hPa 0 mm - 32 W/m² -
1787960117 25° C 49% 1016.6 hPa 0 mm - 35 W/m² -

* Rain latest hour (hover to see other rain measurements)
** Current wind speed in m/s (hover to see current wind gust speed)